Time,TemperatureF,DewpointF,PressureIn,WindDirection,WindDirectionDegrees,WindSpeedMPH,WindSpeedGustMPH,Humidity,HourlyPrecipIn,Conditions,Clouds,dailyrainin,SolarRadiationWatts/m^2,SoftwareType,DateUTC
2013-01-21 00:04:00,32.1,17.8,30.38,NE,51,6.0,9.0,55,0.00,,---,0.00,0.00,VWS V14.01,2013-01-21 08:04:00,
2013-01-21 00:09:00,31.9,17.6,30.38,NNE,31,6.0,12.0,55,0.00,,---,0.00,0.00,VWS V14.01,2013-01-21 08:09:00,
2013-01-21 00:14:00,31.9,17.6,30.38,NE,35,3.0,12.0,55,0.00,,---,0.00,0.00,VWS V14.01,2013-01-21 08:14:00,
2013-01-21 00:19:00,31.9,17.6,30.38,NNE,28,5.0,12.0,55,0.00,,---,0.00,0.00,VWS V14.01,2013-01-21 08:19:00,
2013-01-21 00:24:00,31.9,17.6,30.38,NNE,14,8.0,12.0,55,0.00,,---,0.00,0.00,VWS V14.01,2013-01-21 08:24:00,
2013-01-21 00:29:00,31.9,17.6,30.38,NNE,15,4.0,12.0,55,0.00,,---,0.00,0.00,VWS V14.01,2013-01-21 08:29:00,
2013-01-21 00:34:00,32.0,17.7,30.38,NNE,26,8.0,9.0,55,0.00,,---,0.00,0.00,VWS V14.01,2013-01-21 08:34:00,
2013-01-21 00:39:00,32.0,17.7,30.37,NNE,26,7.0,11.0,55,0.00,,---,0.00,0.00,VWS V14.01,2013-01-21 08:39:00,
2013-01-21 00:44:00,32.2,17.4,30.37,NNE,32,7.0,11.0,54,0.00,,---,0.00,0.00,VWS V14.01,2013-01-21 08:44:00,
2013-01-21 00:49:00,32.3,17.5,30.38,NE,39,8.0,12.0,54,0.00,,---,0.00,0.00,VWS V14.01,2013-01-21 08:49:00,
2013-01-21 00:54:00,32.3,17.5,30.37,NNE,19,4.0,12.0,54,0.00,,---,0.00,0.00,VWS V14.01,2013-01-21 08:54:00,
2013-01-21 00:58:00,32.1,17.8,30.37,NNE,24,4.0,13.0,55,0.00,,---,0.00,0.00,VWS V14.01,2013-01-21 08:58:00,
2013-01-21 01:03:00,32.0,17.7,30.37,NNE,16,9.0,13.0,55,0.00,,---,0.00,0.00,VWS V14.01,2013-01-21 09:03:00,
2013-01-21 01:08:00,32.0,17.7,30.37,North,360,5.0,16.0,55,0.00,,---,0.00,0.00,VWS V14.01,2013-01-21 09:08:00,
2013-01-21 01:13:00,32.0,17.7,30.37,NNE,17,6.0,16.0,55,0.00,,---,0.00,0.00,VWS V14.01,2013-01-21 09:13:00,
2013-01-21 01:18:00,32.0,17.7,30.37,NNE,20,8.0,16.0,55,0.00,,---,0.00,0.00,VWS V14.01,2013-01-21 09:18:00,
2013-01-21 01:23:00,31.9,17.6,30.36,North,351,10.0,16.0,55,0.00,,---,0.00,0.00,VWS V14.01,2013-01-21 09:23:00,
2013-01-21 01:28:00,32.1,17.8,30.36,NNE,28,10.0,16.0,55,0.00,,---,0.00,0.00,VWS V14.01,2013-01-21 09:28:00,
2013-01-21 01:33:00,32.1,17.8,30.36,NNE,29,12.0,17.0,55,0.00,,---,0.00,0.00,VWS V14.01,2013-01-21 09:33:00,
2013-01-21 01:38:00,32.0,17.7,30.36,NNE,13,10.0,17.0,55,0.00,,---,0.00,0.00,VWS V14.01,2013-01-21 09:38:00,
2013-01-21 01:43:00,31.9,17.6,30.36,NNE,26,11.0,17.0,55,0.00,,---,0.00,0.00,VWS V14.01,2013-01-21 09:43:00,
2013-01-21 01:48:00,31.9,17.6,30.36,NNE,27,8.0,19.0,55,0.00,,---,0.00,0.00,VWS V14.01,2013-01-21 09:48:00,
2013-01-21 01:53:00,31.8,17.5,30.36,North,360,5.0,19.0,55,0.00,,---,0.00,0.00,VWS V14.01,2013-01-21 09:53:00,
2013-01-21 01:58:00,31.6,17.3,30.36,NE,44,9.0,19.0,55,0.00,,---,0.00,0.00,VWS V14.01,2013-01-21 09:58:00,
2013-01-21 02:03:00,31.4,16.7,30.36,North,9,4.0,12.0,54,0.00,,---,0.00,0.00,VWS V14.01,2013-01-21 10:03:00,
2013-01-21 02:08:00,31.2,16.5,30.36,West,274,6.0,12.0,54,0.00,,---,0.00,0.00,VWS V14.01,2013-01-21 10:08:00,
2013-01-21 02:14:00,31.0,16.3,30.36,North,11,5.0,12.0,54,0.00,,---,0.00,0.00,VWS V14.01,2013-01-21 10:14:00,
2013-01-21 02:19:00,30.7,16.5,30.36,NNE,28,3.0,12.0,55,0.00,,---,0.00,0.00,VWS V14.01,2013-01-21 10:19:00,
2013-01-21 02:24:00,30.4,16.6,30.36,North,5,4.0,12.0,56,0.00,,---,0.00,0.00,VWS V14.01,2013-01-21 10:24:00,
2013-01-21 02:29:00,30.2,16.4,30.36,NE,46,6.0,12.0,56,0.00,,---,0.00,0.00,VWS V14.01,2013-01-21 10:29:00,
2013-01-21 02:34:00,30.1,15.9,30.36,NW,304,5.0,14.0,55,0.00,,---,0.00,0.00,VWS V14.01,2013-01-21 10:34:00,
2013-01-21 02:39:00,30.2,16.0,30.36,NNE,24,4.0,14.0,55,0.00,,---,0.00,0.00,VWS V14.01,2013-01-21 10:39:00,
2013-01-21 02:44:00,30.0,16.2,30.36,North,9,6.0,14.0,56,0.00,,---,0.00,0.00,VWS V14.01,2013-01-21 10:44:00,
2013-01-21 02:49:00,29.8,16.0,30.36,NNW,334,5.0,14.0,56,0.00,,---,0.00,0.00,VWS V14.01,2013-01-21 10:49:00,
2013-01-21 02:54:00,29.8,16.0,30.36,NE,40,6.0,14.0,56,0.00,,---,0.00,0.00,VWS V14.01,2013-01-21 10:54:00,
2013-01-21 02:59:00,30.0,15.4,30.36,North,9,6.0,14.0,54,0.00,,---,0.00,0.00,VWS V14.01,2013-01-21 10:59:00,
2013-01-21 03:04:00,30.2,15.6,30.36,North,5,7.0,9.0,54,0.00,,---,0.00,0.00,VWS V14.01,2013-01-21 11:04:00,
2013-01-21 03:09:00,30.2,15.6,30.35,NNE,24,10.0,10.0,54,0.00,,---,0.00,0.00,VWS V14.01,2013-01-21 11:09:00,
2013-01-21 03:14:00,30.0,15.8,30.35,NNW,340,5.0,10.0,55,0.00,,---,0.00,0.00,VWS V14.01,2013-01-21 11:14:00,
2013-01-21 03:19:00,30.0,15.4,30.35,North,5,2.0,11.0,54,0.00,,---,0.00,0.00,VWS V14.01,2013-01-21 11:19:00,
2013-01-21 03:24:00,30.2,15.1,30.35,NNE,21,9.0,12.0,53,0.00,,---,0.00,0.00,VWS V14.01,2013-01-21 11:24:00,
2013-01-21 03:29:00,30.7,14.7,30.34,NE,35,8.0,15.0,51,0.00,,---,0.00,0.00,VWS V14.01,2013-01-21 11:29:00,
2013-01-21 03:34:00,31.6,14.6,30.34,NNE,28,4.0,13.0,49,0.00,,---,0.00,0.00,VWS V14.01,2013-01-21 11:34:00,
2013-01-21 03:39:00,31.9,14.4,30.34,NNE,29,9.0,13.0,48,0.00,,---,0.00,0.00,VWS V14.01,2013-01-21 11:39:00,
2013-01-21 03:44:00,31.8,14.8,30.34,North,5,9.0,13.0,49,0.00,,---,0.00,0.00,VWS V14.01,2013-01-21 11:44:00,
2013-01-21 03:49:00,31.4,14.5,30.34,NNW,341,10.0,13.0,49,0.00,,---,0.00,0.00,VWS V14.01,2013-01-21 11:49:00,
2013-01-21 03:54:00,30.7,14.3,30.34,NNE,20,12.0,13.0,50,0.00,,---,0.00,0.00,VWS V14.01,2013-01-21 11:54:00,
2013-01-21 03:59:00,30.5,14.1,30.34,NE,35,5.0,13.0,50,0.00,,---,0.00,0.00,VWS V14.01,2013-01-21 11:59:00,
2013-01-21 04:04:00,30.6,14.6,30.34,NE,36,7.0,13.0,51,0.00,,---,0.00,0.00,VWS V14.01,2013-01-21 12:04:00,
2013-01-21 04:09:00,30.7,14.3,30.34,North,350,3.0,13.0,50,0.00,,---,0.00,0.00,VWS V14.01,2013-01-21 12:09:00,
2013-01-21 04:14:00,30.7,13.8,30.34,NNE,23,8.0,13.0,49,0.00,,---,0.00,0.00,VWS V14.01,2013-01-21 12:14:00,
2013-01-21 04:19:00,30.5,14.1,30.34,North,355,6.0,13.0,50,0.00,,---,0.00,0.00,VWS V14.01,2013-01-21 12:19:00,
2013-01-21 04:24:00,30.4,14.0,30.35,NNW,341,3.0,13.0,50,0.00,,---,0.00,0.00,VWS V14.01,2013-01-21 12:24:00,
2013-01-21 04:29:00,30.3,14.4,30.34,North,355,5.0,13.0,51,0.00,,---,0.00,0.00,VWS V14.01,2013-01-21 12:29:00,
2013-01-21 04:34:00,30.3,14.4,30.34,North,5,6.0,10.0,51,0.00,,---,0.00,0.00,VWS V14.01,2013-01-21 12:34:00,
2013-01-21 04:39:00,30.5,14.1,30.34,NNE,13,3.0,10.0,50,0.00,,---,0.00,0.00,VWS V14.01,2013-01-21 12:39:00,
2013-01-21 04:44:00,31.1,13.7,30.34,NNE,15,4.0,10.0,48,0.00,,---,0.00,0.00,VWS V14.01,2013-01-21 12:44:00,
2013-01-21 04:49:00,31.3,13.9,30.34,WNW,293,7.0,10.0,48,0.00,,---,0.00,0.00,VWS V14.01,2013-01-21 12:49:00,
2013-01-21 04:54:00,31.2,13.8,30.33,NW,305,3.0,10.0,48,0.00,,---,0.00,0.00,VWS V14.01,2013-01-21 12:54:00,
2013-01-21 04:59:00,31.1,13.2,30.33,WNW,302,4.0,13.0,47,0.00,,---,0.00,0.00,VWS V14.01,2013-01-21 12:59:00,
2013-01-21 05:04:00,31.4,13.5,30.33,NNE,22,6.0,10.0,47,0.00,,---,0.00,0.00,VWS V14.01,2013-01-21 13:04:00,
2013-01-21 05:09:00,31.4,13.5,30.33,North,9,7.0,14.0,47,0.00,,---,0.00,0.00,VWS V14.01,2013-01-21 13:09:00,
2013-01-21 05:14:00,31.7,13.3,30.33,NNW,336,6.0,14.0,46,0.00,,---,0.00,0.00,VWS V14.01,2013-01-21 13:14:00,
2013-01-21 05:19:00,31.6,13.7,30.33,NE,44,4.0,14.0,47,0.00,,---,0.00,0.00,VWS V14.01,2013-01-21 13:19:00,
2013-01-21 05:24:00,31.3,13.4,30.33,North,355,7.0,14.0,47,0.00,,---,0.00,0.00,VWS V14.01,2013-01-21 13:24:00,
2013-01-21 05:29:00,31.2,12.8,30.34,North,5,9.0,14.0,46,0.00,,---,0.00,0.00,VWS V14.01,2013-01-21 13:29:00,
2013-01-21 05:34:00,31.3,12.9,30.34,North,5,7.0,12.0,46,0.00,,---,0.00,0.00,VWS V14.01,2013-01-21 13:34:00,
2013-01-21 05:39:00,31.4,13.0,30.34,ENE,76,4.0,12.0,46,0.00,,---,0.00,0.00,VWS V14.01,2013-01-21 13:39:00,
2013-01-21 05:44:00,31.1,13.2,30.34,South,169,2.0,12.0,47,0.00,,---,0.00,0.00,VWS V14.01,2013-01-21 13:44:00,
2013-01-21 05:49:00,30.6,13.3,30.34,WSW,255,1.0,12.0,48,0.00,,---,0.00,0.00,VWS V14.01,2013-01-21 13:49:00,
2013-01-21 05:54:00,30.1,13.3,30.34,West,263,3.0,12.0,49,0.00,,---,0.00,0.00,VWS V14.01,2013-01-21 13:54:00,
2013-01-21 05:59:00,29.5,13.6,30.34,West,277,1.0,12.0,51,0.00,,---,0.00,0.00,VWS V14.01,2013-01-21 13:59:00,
2013-01-21 06:04:00,28.8,13.8,30.34,NNW,340,3.0,10.0,53,0.00,,---,0.00,0.00,VWS V14.01,2013-01-21 14:04:00,
2013-01-21 06:09:00,28.0,13.9,30.33,North,355,3.0,10.0,55,0.00,,---,0.00,0.00,VWS V14.01,2013-01-21 14:09:00,
2013-01-21 06:14:00,27.6,14.0,30.32,North,355,7.0,12.0,56,0.00,,---,0.00,0.00,VWS V14.01,2013-01-21 14:14:00,
2013-01-21 06:19:00,27.4,13.8,30.32,NNW,348,9.0,14.0,56,0.00,,---,0.00,0.00,VWS V14.01,2013-01-21 14:19:00,
2013-01-21 06:24:00,27.2,13.6,30.33,NNE,14,5.0,14.0,56,0.00,,---,0.00,0.00,VWS V14.01,2013-01-21 14:24:00,
2013-01-21 06:29:00,26.9,13.7,30.32,NNW,337,5.0,14.0,57,0.00,,---,0.00,0.00,VWS V14.01,2013-01-21 14:29:00,
2013-01-21 06:34:00,26.6,13.4,30.32,NE,38,8.0,8.0,57,0.00,,---,0.00,0.00,VWS V14.01,2013-01-21 14:34:00,
2013-01-21 06:39:00,26.6,13.8,30.32,NNW,331,6.0,12.0,58,0.00,,---,0.00,0.00,VWS V14.01,2013-01-21 14:39:00,
2013-01-21 06:44:00,26.7,13.5,30.32,West,276,8.0,15.0,57,0.00,,---,0.00,0.00,VWS V14.01,2013-01-21 14:44:00,
2013-01-21 06:49:00,26.6,13.8,30.32,NE,46,11.0,15.0,58,0.00,,---,0.00,0.00,VWS V14.01,2013-01-21 14:49:00,
2013-01-21 06:54:00,26.6,13.4,30.32,NNE,22,5.0,15.0,57,0.00,,---,0.00,0.00,VWS V14.01,2013-01-21 14:54:00,
2013-01-21 06:59:00,27.2,13.6,30.32,NNE,15,9.0,15.0,56,0.00,,---,0.00,0.00,VWS V14.01,2013-01-21 14:59:00,
2013-01-21 07:04:00,27.8,13.8,30.32,NNE,19,8.0,14.0,55,0.00,,---,0.00,0.00,VWS V14.01,2013-01-21 15:04:00,
2013-01-21 07:09:00,27.8,13.8,30.32,NNE,24,10.0,14.0,55,0.00,,---,0.00,0.00,VWS V14.01,2013-01-21 15:09:00,
2013-01-21 07:14:00,28.1,13.2,30.32,NNW,341,10.0,14.0,53,0.00,,---,0.00,0.00,VWS V14.01,2013-01-21 15:14:00,
2013-01-21 07:19:00,28.0,13.5,30.32,North,355,11.0,14.0,54,0.00,,---,0.00,0.00,VWS V14.01,2013-01-21 15:19:00,
2013-01-21 07:24:00,27.6,13.1,30.32,NNE,27,5.0,14.0,54,0.00,,---,0.00,0.00,VWS V14.01,2013-01-21 15:24:00,
2013-01-21 07:29:00,27.3,13.3,30.32,NW,310,4.0,14.0,55,0.00,,---,0.00,0.00,VWS V14.01,2013-01-21 15:29:00,
2013-01-21 07:34:00,27.4,13.4,30.32,NNE,25,5.0,10.0,55,0.00,,---,0.00,5.00,VWS V14.01,2013-01-21 15:34:00,
2013-01-21 07:39:00,27.3,13.3,30.32,North,5,5.0,10.0,55,0.00,,---,0.00,7.00,VWS V14.01,2013-01-21 15:39:00,
2013-01-21 07:44:00,27.2,13.2,30.32,NW,321,6.0,13.0,55,0.00,,---,0.00,7.00,VWS V14.01,2013-01-21 15:44:00,
2013-01-21 07:49:00,27.2,13.2,30.32,NNW,348,3.0,14.0,55,0.00,,---,0.00,9.00,VWS V14.01,2013-01-21 15:49:00,
2013-01-21 07:54:00,27.3,13.3,30.32,North,355,10.0,14.0,55,0.00,,---,0.00,11.00,VWS V14.01,2013-01-21 15:54:00,
2013-01-21 07:59:00,27.5,13.1,30.32,NNW,343,6.0,14.0,54,0.00,,---,0.00,12.00,VWS V14.01,2013-01-21 15:59:00,
2013-01-21 08:04:00,27.4,13.0,30.32,NW,321,6.0,9.0,54,0.00,,---,0.00,12.00,VWS V14.01,2013-01-21 16:04:00,
2013-01-21 08:09:00,27.6,13.1,30.31,NNE,19,8.0,13.0,54,0.00,,---,0.00,14.00,VWS V14.01,2013-01-21 16:09:00,
2013-01-21 08:14:00,27.7,13.2,30.31,NE,38,9.0,16.0,54,0.00,,---,0.00,16.00,VWS V14.01,2013-01-21 16:14:00,
2013-01-21 08:19:00,28.2,13.3,30.31,North,11,16.0,20.0,53,0.00,,---,0.00,16.00,VWS V14.01,2013-01-21 16:19:00,
2013-01-21 08:24:00,28.0,13.1,30.31,North,5,12.0,20.0,53,0.00,,---,0.00,18.00,VWS V14.01,2013-01-21 16:24:00,
2013-01-21 08:29:00,28.9,13.1,30.31,NNW,342,12.0,21.0,51,0.00,,---,0.00,18.00,VWS V14.01,2013-01-21 16:29:00,
2013-01-21 08:34:00,29.8,13.0,30.31,North,355,14.0,19.0,49,0.00,,---,0.00,18.00,VWS V14.01,2013-01-21 16:34:00,
2013-01-21 08:39:00,30.5,12.2,30.31,NE,47,12.0,26.0,46,0.00,,---,0.00,19.00,VWS V14.01,2013-01-21 16:39:00,
2013-01-21 08:44:00,31.2,12.4,30.31,NNE,24,19.0,26.0,45,0.00,,---,0.00,19.00,VWS V14.01,2013-01-21 16:44:00,
2013-01-21 08:49:00,32.0,12.1,30.31,NNE,31,11.0,26.0,43,0.00,,---,0.00,21.00,VWS V14.01,2013-01-21 16:49:00,
2013-01-21 08:54:00,32.7,12.2,30.31,North,5,14.0,26.0,42,0.00,,---,0.00,21.00,VWS V14.01,2013-01-21 16:54:00,
2013-01-21 08:59:00,33.5,11.8,30.32,NE,38,12.0,26.0,40,0.00,,---,0.00,32.00,VWS V14.01,2013-01-21 16:59:00,
2013-01-21 09:04:00,33.9,12.1,30.31,NNE,16,10.0,18.0,40,0.00,,---,0.00,25.00,VWS V14.01,2013-01-21 17:04:00,
2013-01-21 09:09:00,34.1,11.8,30.31,NNE,28,11.0,20.0,39,0.00,,---,0.00,23.00,VWS V14.01,2013-01-21 17:09:00,
2013-01-21 09:14:00,34.1,12.3,30.32,NNE,22,12.0,20.0,40,0.00,,---,0.00,25.00,VWS V14.01,2013-01-21 17:14:00,
2013-01-21 09:19:00,34.0,12.2,30.32,NNE,13,10.0,20.0,40,0.00,,---,0.00,46.00,VWS V14.01,2013-01-21 17:19:00,
2013-01-21 09:24:00,34.7,11.7,30.32,NNW,340,12.0,23.0,38,0.00,,---,0.00,26.00,VWS V14.01,2013-01-21 17:24:00,
2013-01-21 09:29:00,35.4,11.7,30.32,North,360,13.0,24.0,37,0.00,,---,0.00,26.00,VWS V14.01,2013-01-21 17:29:00,
2013-01-21 09:34:00,35.7,12.0,30.32,NNE,22,9.0,17.0,37,0.00,,---,0.00,35.00,VWS V14.01,2013-01-21 17:34:00,
2013-01-21 09:39:00,35.6,12.5,30.31,North,360,13.0,22.0,38,0.00,,---,0.00,28.00,VWS V14.01,2013-01-21 17:39:00,
2013-01-21 09:44:00,35.1,12.1,30.32,NE,46,15.0,22.0,38,0.00,,---,0.00,28.00,VWS V14.01,2013-01-21 17:44:00,
2013-01-21 09:49:00,34.9,13.0,30.32,NNE,29,15.0,22.0,40,0.00,,---,0.00,28.00,VWS V14.01,2013-01-21 17:49:00,
2013-01-21 09:54:00,34.4,13.1,30.32,NNE,24,7.0,22.0,41,0.00,,---,0.00,313.00,VWS V14.01,2013-01-21 17:54:00,
2013-01-21 09:59:00,34.1,13.4,30.32,NNE,26,6.0,24.0,42,0.00,,---,0.00,220.00,VWS V14.01,2013-01-21 17:59:00,
2013-01-21 10:04:00,34.1,13.4,30.32,North,5,15.0,18.0,42,0.00,,---,0.00,121.00,VWS V14.01,2013-01-21 18:04:00,
2013-01-21 10:09:00,34.8,13.5,30.31,NNE,28,11.0,22.0,41,0.00,,---,0.00,353.00,VWS V14.01,2013-01-21 18:09:00,
2013-01-21 10:14:00,35.8,13.3,30.31,NNE,17,19.0,22.0,39,0.00,,---,0.00,364.00,VWS V14.01,2013-01-21 18:14:00,
2013-01-21 10:19:00,37.3,12.8,30.31,NNW,332,12.0,24.0,36,0.00,,---,0.00,376.00,VWS V14.01,2013-01-21 18:19:00,
2013-01-21 10:24:00,38.9,11.6,30.31,North,355,12.0,24.0,32,0.00,,---,0.00,381.00,VWS V14.01,2013-01-21 18:24:00,
2013-01-21 10:29:00,40.5,12.3,30.31,NNE,22,15.0,24.0,31,0.00,,---,0.00,394.00,VWS V14.01,2013-01-21 18:29:00,
2013-01-21 10:34:00,41.3,12.2,30.31,NNE,26,8.0,22.0,30,0.00,,---,0.00,401.00,VWS V14.01,2013-01-21 18:34:00,
2013-01-21 10:39:00,41.6,12.5,30.31,North,11,19.0,22.0,30,0.00,,---,0.00,410.00,VWS V14.01,2013-01-21 18:39:00,
2013-01-21 10:44:00,42.0,11.3,30.31,NE,38,23.0,23.0,28,0.00,,---,0.00,417.00,VWS V14.01,2013-01-21 18:44:00,
2013-01-21 10:49:00,42.5,11.7,30.30,NNE,28,12.0,23.0,28,0.00,,---,0.00,422.00,VWS V14.01,2013-01-21 18:49:00,
2013-01-21 10:54:00,42.8,12.0,30.30,NNE,21,7.0,23.0,28,0.00,,---,0.00,431.00,VWS V14.01,2013-01-21 18:54:00,
2013-01-21 10:59:00,43.4,11.7,30.30,NNE,13,9.0,23.0,27,0.00,,---,0.00,436.00,VWS V14.01,2013-01-21 18:59:00,
2013-01-21 11:04:00,43.8,12.8,30.30,North,5,18.0,20.0,28,0.00,,---,0.00,443.00,VWS V14.01,2013-01-21 19:04:00,
2013-01-21 11:09:00,43.9,12.9,30.30,NNE,15,9.0,20.0,28,0.00,,---,0.00,450.00,VWS V14.01,2013-01-21 19:09:00,
2013-01-21 11:14:00,44.1,13.1,30.30,North,360,15.0,20.0,28,0.00,,---,0.00,455.00,VWS V14.01,2013-01-21 19:14:00,
2013-01-21 11:19:00,44.7,13.6,30.30,North,5,6.0,20.0,28,0.00,,---,0.00,461.00,VWS V14.01,2013-01-21 19:19:00,
2013-01-21 11:24:00,45.2,14.1,30.30,NNE,15,5.0,20.0,28,0.00,,---,0.00,464.00,VWS V14.01,2013-01-21 19:24:00,
2013-01-21 11:29:00,45.5,14.3,30.30,NNE,18,6.0,20.0,28,0.00,,---,0.00,469.00,VWS V14.01,2013-01-21 19:29:00,
2013-01-21 11:34:00,45.9,13.8,30.30,North,5,8.0,13.0,27,0.00,,---,0.00,473.00,VWS V14.01,2013-01-21 19:34:00,
2013-01-21 11:39:00,46.5,13.5,30.30,NNW,338,6.0,14.0,26,0.00,,---,0.00,471.00,VWS V14.01,2013-01-21 19:39:00,
2013-01-21 11:45:00,47.0,13.9,30.30,North,11,8.0,14.0,26,0.00,,---,0.00,471.00,VWS V14.01,2013-01-21 19:45:00,
2013-01-21 11:50:00,47.5,12.5,30.30,NW,318,7.0,14.0,24,0.00,,---,0.00,475.00,VWS V14.01,2013-01-21 19:50:00,
2013-01-21 11:55:00,48.1,14.0,30.29,North,5,7.0,14.0,25,0.00,,---,0.00,272.00,VWS V14.01,2013-01-21 19:55:00,
2013-01-21 12:00:00,48.7,13.5,30.29,NNE,21,5.0,15.0,24,0.00,,---,0.00,32.00,VWS V14.01,2013-01-21 20:00:00,
2013-01-21 12:05:00,49.0,12.8,30.29,NE,38,10.0,11.0,23,0.00,,---,0.00,33.00,VWS V14.01,2013-01-21 20:05:00,
2013-01-21 12:10:00,49.3,13.1,30.28,NNE,12,6.0,12.0,23,0.00,,---,0.00,33.00,VWS V14.01,2013-01-21 20:10:00,
2013-01-21 12:15:00,49.7,13.4,30.28,NNE,33,8.0,12.0,23,0.00,,---,0.00,32.00,VWS V14.01,2013-01-21 20:15:00,
2013-01-21 12:20:00,50.2,12.8,30.28,ENE,63,4.0,17.0,22,0.00,,---,0.00,32.00,VWS V14.01,2013-01-21 20:20:00,
2013-01-21 12:25:00,50.8,13.3,30.27,North,5,4.0,17.0,22,0.00,,---,0.00,40.00,VWS V14.01,2013-01-21 20:25:00,
2013-01-21 12:30:00,51.4,13.9,30.27,NNE,18,10.0,17.0,22,0.00,,---,0.00,90.00,VWS V14.01,2013-01-21 20:30:00,
2013-01-21 12:35:00,51.9,17.2,30.27,NNE,26,3.0,9.0,25,0.00,,---,0.00,33.00,VWS V14.01,2013-01-21 20:35:00,
2013-01-21 12:40:00,51.0,19.9,30.27,NNE,30,6.0,9.0,29,0.00,,---,0.00,35.00,VWS V14.01,2013-01-21 20:40:00,
2013-01-21 12:45:00,50.6,17.9,30.26,NE,56,7.0,10.0,27,0.00,,---,0.00,77.00,VWS V14.01,2013-01-21 20:45:00,
2013-01-21 12:50:00,51.1,13.6,30.26,North,5,6.0,11.0,22,0.00,,---,0.00,141.00,VWS V14.01,2013-01-21 20:50:00,
2013-01-21 12:55:00,52.1,14.4,30.25,North,360,5.0,12.0,22,0.00,,---,0.00,165.00,VWS V14.01,2013-01-21 20:55:00,
2013-01-21 13:00:00,53.0,14.1,30.25,NW,320,5.0,12.0,21,0.00,,---,0.00,403.00,VWS V14.01,2013-01-21 21:00:00,
2013-01-21 13:05:00,53.4,13.4,30.25,NNW,330,1.0,14.0,20,0.00,,---,0.00,410.00,VWS V14.01,2013-01-21 21:05:00,
2013-01-21 13:10:00,53.8,13.7,30.25,North,355,6.0,19.0,20,0.00,,---,0.00,79.00,VWS V14.01,2013-01-21 21:10:00,
2013-01-21 13:15:00,53.9,14.9,30.25,NNE,22,10.0,19.0,21,0.00,,---,0.00,42.00,VWS V14.01,2013-01-21 21:15:00,
2013-01-21 13:20:00,54.1,13.9,30.24,North,360,8.0,19.0,20,0.00,,---,0.00,413.00,VWS V14.01,2013-01-21 21:20:00,
2013-01-21 13:25:00,54.2,14.0,30.24,North,9,7.0,19.0,20,0.00,,---,0.00,455.00,VWS V14.01,2013-01-21 21:25:00,
2013-01-21 13:30:00,54.4,14.2,30.24,NNW,333,6.0,19.0,20,0.00,,---,0.00,448.00,VWS V14.01,2013-01-21 21:30:00,
2013-01-21 13:35:00,54.5,13.1,30.24,NNE,19,5.0,15.0,19,0.00,,---,0.00,445.00,VWS V14.01,2013-01-21 21:35:00,
2013-01-21 13:40:00,54.7,13.3,30.24,NNE,19,4.0,15.0,19,0.00,,---,0.00,438.00,VWS V14.01,2013-01-21 21:40:00,
2013-01-21 13:45:00,54.9,17.8,30.24,South,181,1.0,15.0,23,0.00,,---,0.00,431.00,VWS V14.01,2013-01-21 21:45:00,
2013-01-21 13:50:00,54.0,19.9,30.24,SSE,165,1.0,15.0,26,0.00,,---,0.00,424.00,VWS V14.01,2013-01-21 21:50:00,
2013-01-21 13:55:00,52.7,19.7,30.23,SSW,203,0.0,15.0,27,0.00,,---,0.00,413.00,VWS V14.01,2013-01-21 21:55:00,
2013-01-21 14:00:00,51.7,19.7,30.23,SSW,207,3.0,3.0,28,0.00,,---,0.00,406.00,VWS V14.01,2013-01-21 22:00:00,
2013-01-21 14:05:00,51.1,20.0,30.23,South,188,0.0,3.0,29,0.00,,---,0.00,399.00,VWS V14.01,2013-01-21 22:05:00,
2013-01-21 14:10:00,50.7,19.6,30.24,SSW,209,3.0,5.0,29,0.00,,---,0.00,390.00,VWS V14.01,2013-01-21 22:10:00,
2013-01-21 14:15:00,50.3,19.3,30.24,SSE,164,0.0,5.0,29,0.00,,---,0.00,381.00,VWS V14.01,2013-01-21 22:15:00,
2013-01-21 14:20:00,50.1,19.1,30.24,SSW,196,2.0,5.0,29,0.00,,---,0.00,371.00,VWS V14.01,2013-01-21 22:20:00,
2013-01-21 14:25:00,50.0,19.0,30.24,SSE,165,0.0,5.0,29,0.00,,---,0.00,360.00,VWS V14.01,2013-01-21 22:25:00,
2013-01-21 14:30:00,49.9,18.9,30.24,SSW,203,0.0,5.0,29,0.00,,---,0.00,352.00,VWS V14.01,2013-01-21 22:30:00,
2013-01-21 14:35:00,49.8,18.8,30.24,SSW,200,4.0,4.0,29,0.00,,---,0.00,341.00,VWS V14.01,2013-01-21 22:35:00,
2013-01-21 14:40:00,49.8,18.8,30.24,WSW,246,0.0,4.0,29,0.00,,---,0.00,330.00,VWS V14.01,2013-01-21 22:40:00,
2013-01-21 14:45:00,49.8,18.8,30.24,South,175,1.0,4.0,29,0.00,,---,0.00,322.00,VWS V14.01,2013-01-21 22:45:00,
2013-01-21 14:50:00,49.9,18.9,30.25,SSE,150,2.0,4.0,29,0.00,,---,0.00,309.00,VWS V14.01,2013-01-21 22:50:00,
2013-01-21 14:55:00,50.0,19.8,30.25,SSE,166,2.0,5.0,30,0.00,,---,0.00,297.00,VWS V14.01,2013-01-21 22:55:00,
2013-01-21 15:00:00,50.1,19.9,30.25,SSE,162,0.0,0.0,30,0.00,,---,0.00,287.00,VWS V14.01,2013-01-21 23:00:00,
2013-01-21 15:05:00,50.2,20.8,30.25,South,175,0.0,4.0,31,0.00,,---,0.00,272.00,VWS V14.01,2013-01-21 23:05:00,
2013-01-21 15:10:00,50.2,20.0,30.25,South,178,0.0,4.0,30,0.00,,---,0.00,258.00,VWS V14.01,2013-01-21 23:10:00,
2013-01-21 15:15:00,50.1,20.7,30.25,SSE,161,0.0,4.0,31,0.00,,---,0.00,244.00,VWS V14.01,2013-01-21 23:15:00,
2013-01-21 15:20:00,50.1,20.7,30.25,South,186,0.0,4.0,31,0.00,,---,0.00,230.00,VWS V14.01,2013-01-21 23:20:00,
2013-01-21 15:25:00,50.1,20.7,30.25,SSE,168,0.0,4.0,31,0.00,,---,0.00,214.00,VWS V14.01,2013-01-21 23:25:00,
2013-01-21 15:30:00,50.1,20.7,30.25,SSW,205,0.0,4.0,31,0.00,,---,0.00,199.00,VWS V14.01,2013-01-21 23:30:00,
2013-01-21 15:35:00,50.1,20.7,30.25,SSE,152,1.0,1.0,31,0.00,,---,0.00,181.00,VWS V14.01,2013-01-21 23:35:00,
2013-01-21 15:40:00,50.3,20.8,30.25,SSE,163,1.0,2.0,31,0.00,,---,0.00,165.00,VWS V14.01,2013-01-21 23:40:00,
2013-01-21 15:45:00,50.4,20.9,30.24,SSE,161,0.0,2.0,31,0.00,,---,0.00,153.00,VWS V14.01,2013-01-21 23:45:00,
2013-01-21 15:50:00,50.4,20.9,30.24,SSE,159,0.0,2.0,31,0.00,,---,0.00,135.00,VWS V14.01,2013-01-21 23:50:00,
2013-01-21 15:55:00,50.4,20.9,30.24,WSW,238,4.0,5.0,31,0.00,,---,0.00,120.00,VWS V14.01,2013-01-21 23:55:00,
2013-01-21 16:00:00,50.0,20.6,30.24,SW,217,3.0,7.0,31,0.00,,---,0.00,105.00,VWS V14.01,2013-01-22 00:00:00,
2013-01-21 16:05:00,49.6,20.2,30.25,West,261,0.0,4.0,31,0.00,,---,0.00,90.00,VWS V14.01,2013-01-22 00:05:00,
2013-01-21 16:10:00,49.2,20.6,30.25,WSW,244,2.0,4.0,32,0.00,,---,0.00,76.00,VWS V14.01,2013-01-22 00:10:00,
2013-01-21 16:15:00,49.0,20.4,30.26,SW,235,2.0,5.0,32,0.00,,---,0.00,62.00,VWS V14.01,2013-01-22 00:15:00,
2013-01-21 16:20:00,48.5,21.4,30.26,WSW,246,0.0,5.0,34,0.00,,---,0.00,51.00,VWS V14.01,2013-01-22 00:20:00,
2013-01-21 16:25:00,47.9,21.6,30.26,WSW,239,1.0,5.0,35,0.00,,---,0.00,40.00,VWS V14.01,2013-01-22 00:25:00,
2013-01-21 16:49:00,45.0,19.7,30.26,NNW,342,0.0,5.0,36,0.00,,---,0.00,9.00,VWS V14.01,2013-01-22 00:49:00,
2013-01-21 16:54:00,44.7,20.0,30.26,North,355,0.0,5.0,37,0.00,,---,0.00,5.00,VWS V14.01,2013-01-22 00:54:00,
2013-01-21 16:59:00,44.3,19.7,30.26,West,277,0.0,5.0,37,0.00,,---,0.00,5.00,VWS V14.01,2013-01-22 00:59:00,
2013-01-21 17:04:00,43.8,19.9,30.26,West,277,0.0,0.0,38,0.00,,---,0.00,0.00,VWS V14.01,2013-01-22 01:04:00,
2013-01-21 17:09:00,43.5,19.6,30.27,NNW,348,0.0,1.0,38,0.00,,---,0.00,0.00,VWS V14.01,2013-01-22 01:09:00,
2013-01-21 17:14:00,42.9,19.7,30.27,NNW,348,0.0,1.0,39,0.00,,---,0.00,0.00,VWS V14.01,2013-01-22 01:14:00,
2013-01-21 17:19:00,41.9,18.8,30.27,NW,317,0.0,2.0,39,0.00,,---,0.00,0.00,VWS V14.01,2013-01-22 01:19:00,
2013-01-21 17:24:00,41.4,18.9,30.27,ENE,69,2.0,2.0,40,0.00,,---,0.00,0.00,VWS V14.01,2013-01-22 01:24:00,
2013-01-21 17:29:00,41.3,19.4,30.27,ENE,78,0.0,2.0,41,0.00,,---,0.00,0.00,VWS V14.01,2013-01-22 01:29:00,
2013-01-21 17:34:00,40.9,19.6,30.27,WNW,293,0.0,2.0,42,0.00,,---,0.00,0.00,VWS V14.01,2013-01-22 01:34:00,
2013-01-21 17:39:00,40.4,19.1,30.27,West,269,0.0,2.0,42,0.00,,---,0.00,0.00,VWS V14.01,2013-01-22 01:39:00,
2013-01-21 17:44:00,40.4,19.7,30.26,WNW,301,5.0,5.0,43,0.00,,---,0.00,0.00,VWS V14.01,2013-01-22 01:44:00,
2013-01-21 17:49:00,40.6,19.9,30.26,West,281,3.0,6.0,43,0.00,,---,0.00,0.00,VWS V14.01,2013-01-22 01:49:00,
2013-01-21 17:54:00,40.4,20.2,30.26,NW,309,3.0,6.0,44,0.00,,---,0.00,0.00,VWS V14.01,2013-01-22 01:54:00,
2013-01-21 17:59:00,40.1,21.0,30.26,NW,317,3.0,6.0,46,0.00,,---,0.00,0.00,VWS V14.01,2013-01-22 01:59:00,
2013-01-21 18:04:00,40.0,20.9,30.26,NW,312,4.0,6.0,46,0.00,,---,0.00,0.00,VWS V14.01,2013-01-22 02:04:00,
2013-01-21 18:09:00,40.0,20.4,30.26,WNW,292,3.0,7.0,45,0.00,,---,0.00,0.00,VWS V14.01,2013-01-22 02:09:00,
2013-01-21 18:14:00,40.1,20.5,30.27,NW,313,4.0,8.0,45,0.00,,---,0.00,0.00,VWS V14.01,2013-01-22 02:14:00,
2013-01-21 18:19:00,40.2,20.6,30.26,West,277,4.0,8.0,45,0.00,,---,0.00,0.00,VWS V14.01,2013-01-22 02:19:00,
2013-01-21 18:24:00,40.6,20.4,30.26,WNW,287,3.0,8.0,44,0.00,,---,0.00,0.00,VWS V14.01,2013-01-22 02:24:00,
2013-01-21 18:29:00,41.0,20.8,30.26,West,274,0.0,8.0,44,0.00,,---,0.00,0.00,VWS V14.01,2013-01-22 02:29:00,
2013-01-21 18:34:00,41.1,20.3,30.26,West,276,1.0,4.0,43,0.00,,---,0.00,0.00,VWS V14.01,2013-01-22 02:34:00,
2013-01-21 18:39:00,41.2,20.4,30.26,West,275,0.0,4.0,43,0.00,,---,0.00,0.00,VWS V14.01,2013-01-22 02:39:00,
2013-01-21 18:44:00,41.3,20.0,30.26,NNW,346,0.0,5.0,42,0.00,,---,0.00,0.00,VWS V14.01,2013-01-22 02:44:00,
2013-01-21 18:49:00,41.0,20.2,30.26,NNW,346,0.0,5.0,43,0.00,,---,0.00,0.00,VWS V14.01,2013-01-22 02:49:00,
2013-01-21 18:54:00,40.3,20.1,30.26,NE,47,1.0,5.0,44,0.00,,---,0.00,0.00,VWS V14.01,2013-01-22 02:54:00,
2013-01-21 18:59:00,39.7,20.6,30.26,NNW,342,3.0,5.0,46,0.00,,---,0.00,0.00,VWS V14.01,2013-01-22 02:59:00,
2013-01-21 19:04:00,39.3,20.3,30.25,North,5,0.0,2.0,46,0.00,,---,0.00,0.00,VWS V14.01,2013-01-22 03:04:00,
2013-01-21 19:09:00,39.0,20.5,30.26,North,5,1.0,2.0,47,0.00,,---,0.00,0.00,VWS V14.01,2013-01-22 03:09:00,
2013-01-21 19:14:00,38.8,20.3,30.26,East,84,1.0,2.0,47,0.00,,---,0.00,0.00,VWS V14.01,2013-01-22 03:14:00,
2013-01-21 19:19:00,38.3,19.9,30.26,ENE,63,0.0,2.0,47,0.00,,---,0.00,0.00,VWS V14.01,2013-01-22 03:19:00,
2013-01-21 19:24:00,37.7,19.8,30.26,ENE,61,0.0,2.0,48,0.00,,---,0.00,0.00,VWS V14.01,2013-01-22 03:24:00,
2013-01-21 19:29:00,37.1,20.2,30.26,North,355,0.0,2.0,50,0.00,,---,0.00,0.00,VWS V14.01,2013-01-22 03:29:00,
2013-01-21 19:34:00,36.4,20.0,30.26,NNW,335,0.0,1.0,51,0.00,,---,0.00,0.00,VWS V14.01,2013-01-22 03:34:00,
2013-01-21 19:39:00,36.1,19.7,30.25,West,260,0.0,2.0,51,0.00,,---,0.00,0.00,VWS V14.01,2013-01-22 03:39:00,
2013-01-21 19:44:00,36.1,20.2,30.26,WSW,242,0.0,2.0,52,0.00,,---,0.00,0.00,VWS V14.01,2013-01-22 03:44:00,
2013-01-21 19:49:00,35.7,19.8,30.26,SW,235,0.0,2.0,52,0.00,,---,0.00,0.00,VWS V14.01,2013-01-22 03:49:00,
2013-01-21 19:54:00,35.2,20.2,30.26,WSW,238,0.0,2.0,54,0.00,,---,0.00,0.00,VWS V14.01,2013-01-22 03:54:00,
2013-01-21 19:59:00,34.6,20.1,30.26,WSW,252,0.0,2.0,55,0.00,,---,0.00,0.00,VWS V14.01,2013-01-22 03:59:00,
2013-01-21 20:04:00,34.1,19.6,30.26,SSW,192,0.0,1.0,55,0.00,,---,0.00,0.00,VWS V14.01,2013-01-22 04:04:00,
2013-01-21 20:09:00,33.5,19.5,30.26,SSW,192,0.0,1.0,56,0.00,,---,0.00,0.00,VWS V14.01,2013-01-22 04:09:00,
2013-01-21 20:14:00,32.8,19.7,30.26,SSW,192,0.0,1.0,58,0.00,,---,0.00,0.00,VWS V14.01,2013-01-22 04:14:00,
2013-01-21 20:19:00,32.2,19.5,30.26,SSW,192,0.0,1.0,59,0.00,,---,0.00,0.00,VWS V14.01,2013-01-22 04:19:00,
2013-01-21 20:24:00,31.6,19.3,30.26,SSW,193,0.0,1.0,60,0.00,,---,0.00,0.00,VWS V14.01,2013-01-22 04:24:00,
2013-01-21 20:29:00,31.1,19.2,30.26,ENE,57,0.0,2.0,61,0.00,,---,0.00,0.00,VWS V14.01,2013-01-22 04:29:00,
2013-01-21 20:34:00,30.8,19.3,30.25,NE,45,0.0,0.0,62,0.00,,---,0.00,0.00,VWS V14.01,2013-01-22 04:34:00,
2013-01-21 20:39:00,30.5,19.0,30.25,NNE,17,0.0,0.0,62,0.00,,---,0.00,0.00,VWS V14.01,2013-01-22 04:39:00,
2013-01-21 20:44:00,30.4,19.3,30.25,NNW,342,0.0,0.0,63,0.00,,---,0.00,0.00,VWS V14.01,2013-01-22 04:44:00,
2013-01-21 20:49:00,30.3,18.9,30.25,NNW,342,0.0,0.0,62,0.00,,---,0.00,0.00,VWS V14.01,2013-01-22 04:49:00,
2013-01-21 20:54:00,30.6,18.8,30.25,SSW,195,0.0,3.0,61,0.00,,---,0.00,0.00,VWS V14.01,2013-01-22 04:54:00,
2013-01-21 20:59:00,30.9,19.0,30.25,SSW,199,0.0,3.0,61,0.00,,---,0.00,0.00,VWS V14.01,2013-01-22 04:59:00,
2013-01-21 21:00:00,31.1,18.9,30.25,SSW,199,0.0,3.0,60,0.00,,---,0.00,0.00,VWS V14.01,2013-01-22 05:00:00,
2013-01-21 21:01:00,31.2,19.0,30.25,SSW,199,0.0,0.0,60,0.00,,---,0.00,0.00,VWS V14.01,2013-01-22 05:01:00,
2013-01-21 21:07:00,31.7,19.4,30.25,West,271,1.0,2.0,60,0.00,,---,0.00,0.00,VWS V14.01,2013-01-22 05:07:00,
2013-01-21 21:12:00,31.9,19.2,30.25,WSW,244,1.0,2.0,59,0.00,,---,0.00,0.00,VWS V14.01,2013-01-22 05:12:00,
2013-01-21 21:17:00,31.7,19.0,30.25,WSW,245,1.0,2.0,59,0.00,,---,0.00,0.00,VWS V14.01,2013-01-22 05:17:00,
2013-01-21 21:22:00,31.5,18.8,30.25,North,360,3.0,6.0,59,0.00,,---,0.00,0.00,VWS V14.01,2013-01-22 05:22:00,
2013-01-21 21:27:00,31.9,18.4,30.25,NNE,32,1.0,9.0,57,0.00,,---,0.00,0.00,VWS V14.01,2013-01-22 05:27:00,
2013-01-21 21:32:00,32.5,18.6,30.24,North,5,1.0,6.0,56,0.00,,---,0.00,0.00,VWS V14.01,2013-01-22 05:32:00,
2013-01-21 21:37:00,33.3,18.0,30.24,North,360,3.0,9.0,53,0.00,,---,0.00,0.00,VWS V14.01,2013-01-22 05:37:00,
2013-01-21 21:42:00,34.1,18.3,30.24,NNE,32,3.0,9.0,52,0.00,,---,0.00,0.00,VWS V14.01,2013-01-22 05:42:00,
2013-01-21 21:46:00,34.6,18.8,30.24,NNE,14,4.0,9.0,52,0.00,,---,0.00,0.00,VWS V14.01,2013-01-22 05:46:00,
2013-01-21 21:51:00,34.6,18.3,30.24,ENE,64,11.0,11.0,51,0.00,,---,0.00,0.00,VWS V14.01,2013-01-22 05:51:00,
2013-01-21 21:56:00,34.6,18.3,30.24,NNE,32,4.0,16.0,51,0.00,,---,0.00,0.00,VWS V14.01,2013-01-22 05:56:00,
2013-01-21 22:01:00,34.6,17.9,30.24,North,355,9.0,12.0,50,0.00,,---,0.00,0.00,VWS V14.01,2013-01-22 06:01:00,
2013-01-21 22:06:00,34.4,17.7,30.24,ENE,58,10.0,13.0,50,0.00,,---,0.00,0.00,VWS V14.01,2013-01-22 06:06:00,
2013-01-21 22:11:00,34.1,17.4,30.24,NNE,27,7.0,13.0,50,0.00,,---,0.00,0.00,VWS V14.01,2013-01-22 06:11:00,
2013-01-21 22:16:00,33.8,17.1,30.25,NNE,27,5.0,13.0,50,0.00,,---,0.00,0.00,VWS V14.01,2013-01-22 06:16:00,
2013-01-21 22:21:00,33.5,17.3,30.25,North,360,4.0,13.0,51,0.00,,---,0.00,0.00,VWS V14.01,2013-01-22 06:21:00,
2013-01-21 22:26:00,33.2,17.0,30.25,NNE,22,5.0,13.0,51,0.00,,---,0.00,0.00,VWS V14.01,2013-01-22 06:26:00,
2013-01-21 22:31:00,33.0,16.9,30.25,NE,36,2.0,8.0,51,0.00,,---,0.00,0.00,VWS V14.01,2013-01-22 06:31:00,
2013-01-21 22:36:00,32.8,16.7,30.25,NNW,343,3.0,8.0,51,0.00,,---,0.00,0.00,VWS V14.01,2013-01-22 06:36:00,
2013-01-21 22:41:00,32.6,16.5,30.25,NE,45,5.0,9.0,51,0.00,,---,0.00,0.00,VWS V14.01,2013-01-22 06:41:00,
2013-01-21 22:46:00,32.5,16.9,30.25,NNW,339,4.0,9.0,52,0.00,,---,0.00,0.00,VWS V14.01,2013-01-22 06:46:00,
2013-01-21 22:51:00,32.3,16.7,30.25,North,5,5.0,10.0,52,0.00,,---,0.00,0.00,VWS V14.01,2013-01-22 06:51:00,
2013-01-21 22:56:00,32.1,16.5,30.25,NNW,344,5.0,10.0,52,0.00,,---,0.00,0.00,VWS V14.01,2013-01-22 06:56:00,
2013-01-21 23:01:00,32.0,16.4,30.25,NNW,346,2.0,5.0,52,0.00,,---,0.00,0.00,VWS V14.01,2013-01-22 07:01:00,
2013-01-21 23:06:00,31.9,16.3,30.25,North,355,2.0,6.0,52,0.00,,---,0.00,0.00,VWS V14.01,2013-01-22 07:06:00,
2013-01-21 23:11:00,31.9,16.3,30.25,North,355,3.0,7.0,52,0.00,,---,0.00,0.00,VWS V14.01,2013-01-22 07:11:00,
2013-01-21 23:16:00,32.0,16.4,30.25,North,5,4.0,9.0,52,0.00,,---,0.00,0.00,VWS V14.01,2013-01-22 07:16:00,
2013-01-21 23:21:00,32.0,16.4,30.25,North,360,3.0,9.0,52,0.00,,---,0.00,0.00,VWS V14.01,2013-01-22 07:21:00,
2013-01-21 23:26:00,31.9,16.3,30.25,NNE,15,7.0,11.0,52,0.00,,---,0.00,0.00,VWS V14.01,2013-01-22 07:26:00,
2013-01-21 23:31:00,31.7,16.5,30.25,NNW,347,3.0,7.0,53,0.00,,---,0.00,0.00,VWS V14.01,2013-01-22 07:31:00,
2013-01-21 23:36:00,31.5,16.4,30.25,NNW,333,5.0,8.0,53,0.00,,---,0.00,0.00,VWS V14.01,2013-01-22 07:36:00,
2013-01-21 23:41:00,31.5,16.4,30.24,North,360,6.0,12.0,53,0.00,,---,0.00,0.00,VWS V14.01,2013-01-22 07:41:00,
2013-01-21 23:46:00,31.5,16.4,30.24,North,5,8.0,12.0,53,0.00,,---,0.00,0.00,VWS V14.01,2013-01-22 07:46:00,
2013-01-21 23:51:00,31.6,16.5,30.24,NNE,15,5.0,12.0,53,0.00,,---,0.00,0.00,VWS V14.01,2013-01-22 07:51:00,
2013-01-21 23:56:00,31.4,16.7,30.24,North,351,7.0,12.0,54,0.00,,---,0.00,0.00,VWS V14.01,2013-01-22 07:56:00,